Stations météo

réclame
Mon MeteoGroup
Sevilla/San Pablo, Espagne (8391): Température de l'air & dewpoint: 18.04.2018 10:00:00 - 24.04.2018 10:00:00 (CEST)Sevilla/San Pablo, Espagne (8391): Vitesse du vent: 18.04.2018 10:00:00 - 24.04.2018 10:00:00 (CEST)Sevilla/San Pablo, Espagne (8391): Direction du vent: 18.04.2018 10:00:00 - 24.04.2018 10:00:00 (CEST)Sevilla/San Pablo, Espagne (8391): reduced air pressure: 18.04.2018 10:00:00 - 24.04.2018 10:00:00 (CEST)Sevilla/San Pablo, Espagne (8391): visibility: 18.04.2018 10:00:00 - 24.04.2018 10:00:00 (CEST)
Date & Time tt [°C] td [°C] ff [km/h] ff [knt] dd ppp [hPa] vv [km]
24.04.2018 10:00:00 19,6 14,7 9 5 SW 1013,2 -
24.04.2018 09:00:00 17,9 14,8 0 0 N 1013,1 -
24.04.2018 08:00:00 17,1 14,2 9 5 SSW 1012,2 20
24.04.2018 07:00:00 17,1 14,6 9 5 WSW 1012,2 -
24.04.2018 06:00:00 17,4 14,9 5 3 SSW 1011,8 -
24.04.2018 05:00:00 17,1 15,5 8 4 WSW 1011,6 30
24.04.2018 04:00:00 17,3 15,3 8 4 S 1012,4 -
24.04.2018 03:00:00 17,4 15,2 9 5 WNW 1011,7 -
24.04.2018 02:00:00 17,6 14,9 11 6 S 1012,6 -
24.04.2018 01:00:00 18,1 14,4 13 7 SW 1011,9 -
24.04.2018 00:00:00 18,6 15,1 16 9 SSW 1012,0 -
23.04.2018 23:00:00 19,4 16,0 15 8 NW 1011,2 30
23.04.2018 22:00:00 20,2 15,8 15 8 SSW 1011,4 -
23.04.2018 21:00:00 21,8 16,7 16 9 SSW 1009,9 -
23.04.2018 20:00:00 26,7 15,5 5 3 SE 1009,6 30
23.04.2018 19:00:00 27,3 12,0 8 4 E 1009,7 -
23.04.2018 18:00:00 27,1 13,3 11 6 E 1009,8 -
23.04.2018 17:00:00 27,0 12,4 15 8 ENE 1010,0 30
23.04.2018 16:00:00 27,0 13,8 15 8 E 1011,0 -
23.04.2018 15:00:00 26,1 13,7 18 10 ENE 1011,6 -
23.04.2018 14:00:00 25,8 14,3 24 13 E 1012,2 30
23.04.2018 13:00:00 24,5 14,2 28 15 ENE 1013,1 -
23.04.2018 12:00:00 23,7 14,5 24 13 ENE 1013,7 -
23.04.2018 11:00:00 21,9 14,6 13 7 E 1013,5 30
23.04.2018 10:00:00 20,1 13,7 15 8 ENE 1013,4 -
23.04.2018 09:00:00 18,0 14,1 13 7 ENE 1013,2 -
23.04.2018 08:00:00 16,7 14,0 13 7 NNE 1013,2 30
23.04.2018 07:00:00 16,9 14,4 15 8 ENE 1013,2 -
23.04.2018 06:00:00 16,9 15,1 13 7 ENE 1013,3 -
23.04.2018 05:00:00 17,5 15,5 22 12 NE 1012,9 30
23.04.2018 04:00:00 17,1 16,5 11 6 N 1013,9 -
23.04.2018 03:00:00 16,9 15,8 13 7 N 1014,6 -
23.04.2018 02:00:00 17,3 16,0 11 6 W 1014,9 20
23.04.2018 01:00:00 17,6 15,8 15 8 SW 1014,5 -
23.04.2018 00:00:00 18,4 16,6 8 4 ESE 1013,6 -
22.04.2018 23:00:00 18,8 16,8 9 5 NW 1012,9 9
22.04.2018 22:00:00 20,2 15,4 11 6 SW 1013,1 -
22.04.2018 21:00:00 20,9 15,2 13 7 W 1011,8 -
22.04.2018 20:00:00 22,2 15,3 22 12 W 1011,4 20
22.04.2018 19:00:00 24,2 15,4 13 7 W 1011,3 -
22.04.2018 18:00:00 24,6 15,3 8 4 W 1011,4 -
22.04.2018 17:00:00 23,0 14,9 15 8 NW 1011,4 25
22.04.2018 16:00:00 23,8 14,8 9 5 WNW 1012,0 -
22.04.2018 15:00:00 23,0 14,4 5 3 WNW 1012,3 -
22.04.2018 14:00:00 22,2 14,9 9 5 N 1012,6 25
22.04.2018 13:00:00 21,1 14,3 4 2 N 1013,0 -
22.04.2018 12:00:00 20,6 15,2 8 4 W 1013,1 -
22.04.2018 11:00:00 18,6 15,9 5 3 WSW 1013,1 15
22.04.2018 10:00:00 16,2 15,9 5 3 WSW 1012,9 -
22.04.2018 09:00:00 15,6 15,3 2 1 S 1012,7 -
22.04.2018 08:00:00 15,3 14,7 5 3 SSE 1012,6 0,5
22.04.2018 07:00:00 15,5 14,5 4 2 SSE 1012,3 -
22.04.2018 06:00:00 15,9 15,3 8 4 SSW 1012,8 -
22.04.2018 05:00:00 15,9 14,9 4 2 WNW 1013,0 30
22.04.2018 04:00:00 16,8 15,3 4 2 WNW 1013,2 -
22.04.2018 03:00:00 17,6 15,2 9 5 ENE 1014,2 -
22.04.2018 02:00:00 17,6 14,9 4 2 N 1014,8 25
22.04.2018 01:00:00 18,3 15,3 8 4 ENE 1014,2 -
22.04.2018 00:00:00 18,2 16,0 13 7 WNW 1014,2 -
21.04.2018 23:00:00 18,6 16,4 13 7 W 1014,7 25
21.04.2018 22:00:00 19,7 15,3 11 6 W 1013,7 -
21.04.2018 21:00:00 21,1 14,1 13 7 ENE 1012,2 -
21.04.2018 20:00:00 22,1 13,5 16 9 NE 1012,0 25
21.04.2018 19:00:00 23,1 12,3 16 9 ENE 1011,9 -
21.04.2018 18:00:00 23,5 12,0 13 7 ENE 1012,7 -
21.04.2018 17:00:00 23,0 11,7 21 11 ENE 1012,4 25
21.04.2018 16:00:00 22,2 13,1 22 12 NNE 1013,1 -
21.04.2018 15:00:00 19,3 14,0 16 9 WNW 1014,9 -
21.04.2018 14:00:00 19,8 13,6 22 12 W 1015,6 25
21.04.2018 13:00:00 19,3 13,7 28 15 W 1016,5 -
21.04.2018 12:00:00 20,1 12,3 9 5 ENE 1014,7 -
21.04.2018 11:00:00 18,6 11,9 21 11 E 1013,6 30
21.04.2018 10:00:00 18,6 11,4 18 10 E 1013,5 -
21.04.2018 09:00:00 17,9 11,2 34 18 ENE 1011,2 -
21.04.2018 08:00:00 16,4 12,2 31 17 NE 1011,2 20
21.04.2018 07:00:00 16,0 13,5 9 5 NNW 1014,1 -
21.04.2018 06:00:00 16,6 12,1 9 5 NNE 1014,2 -
21.04.2018 05:00:00 16,6 12,1 11 6 ENE 1014,5 30
21.04.2018 04:00:00 16,4 12,4 15 8 NNE 1014,1 -
21.04.2018 03:00:00 16,7 12,2 11 6 NE 1014,5 -
21.04.2018 02:00:00 16,7 11,8 21 11 NE 1013,2 -
21.04.2018 01:00:00 16,4 12,4 15 8 NE 1013,8 -
21.04.2018 00:00:00 16,3 12,6 11 6 E 1014,7 -
20.04.2018 23:00:00 17,8 12,3 4 2 SSE 1015,2 30
20.04.2018 22:00:00 19,1 11,8 15 8 SSW 1015,4 -
20.04.2018 21:00:00 19,9 11,9 15 8 SW 1014,5 -
20.04.2018 20:00:00 21,4 12,3 16 9 SW 1014,0 30
20.04.2018 19:00:00 23,2 13,4 11 6 W 1013,5 -
20.04.2018 18:00:00 23,9 12,5 11 6 SW 1012,9 -
20.04.2018 17:00:00 25,2 12,4 9 5 SW 1012,9 30
20.04.2018 16:00:00 24,9 11,2 13 7 WSW 1013,0 -
20.04.2018 15:00:00 24,5 11,8 24 13 E 1013,1 -
20.04.2018 14:00:00 23,3 11,7 34 18 E 1013,3 30
20.04.2018 13:00:00 21,9 11,7 37 20 E 1013,6 -
20.04.2018 12:00:00 21,0 11,7 34 18 E 1014,0 -
20.04.2018 11:00:00 19,6 11,3 35 19 E 1013,5 30
20.04.2018 10:00:00 17,9 11,0 35 19 E 1013,8 -
20.04.2018 09:00:00 16,9 10,5 35 19 E 1013,5 -
20.04.2018 08:00:00 15,3 10,5 29 16 E 1013,5 25
20.04.2018 07:00:00 15,2 10,7 29 16 E 1013,5 -
20.04.2018 06:00:00 15,2 10,6 26 14 E 1013,6 -
20.04.2018 05:00:00 15,3 10,7 24 13 E 1014,3 30
20.04.2018 04:00:00 15,4 10,3 24 13 E 1014,7 -
20.04.2018 03:00:00 15,5 10,9 15 8 NE 1015,4 -
20.04.2018 02:00:00 15,4 11,0 13 7 NE 1015,5 30
20.04.2018 01:00:00 15,7 10,7 13 7 NNE 1015,7 -
20.04.2018 00:00:00 16,6 10,4 11 6 NNE 1015,8 -
19.04.2018 23:00:00 18,4 9,5 9 5 E 1016,1 30
19.04.2018 22:00:00 19,0 10,2 8 4 SSE 1015,5 -
19.04.2018 21:00:00 21,4 10,2 13 7 ESE 1014,8 -
19.04.2018 20:00:00 23,7 10,4 16 9 E 1014,6 30
19.04.2018 19:00:00 25,7 8,5 24 13 E 1014,5 -
19.04.2018 18:00:00 26,3 8,0 28 15 E 1014,7 -
19.04.2018 17:00:00 26,5 8,2 26 14 E 1015,2 30
19.04.2018 16:00:00 26,3 8,1 26 14 E 1015,7 -
19.04.2018 15:00:00 26,0 8,7 29 16 E 1016,4 -
19.04.2018 14:00:00 25,3 8,2 29 16 E 1017,0 30
19.04.2018 13:00:00 24,6 9,3 28 15 E 1017,5 -
19.04.2018 12:00:00 22,5 10,5 28 15 E 1018,3 -
19.04.2018 11:00:00 20,6 9,3 29 16 E 1018,4 30
19.04.2018 10:00:00 18,7 9,0 21 11 E 1018,6 -
19.04.2018 09:00:00 16,6 8,9 21 11 E 1018,6 -
19.04.2018 08:00:00 11,8 9,0 5 3 ENE 1018,5 30
19.04.2018 07:00:00 11,8 8,3 5 3 NE 1018,7 -
19.04.2018 06:00:00 12,7 8,0 8 4 NE 1018,8 -
19.04.2018 05:00:00 13,6 8,0 11 6 ENE 1019,0 30
19.04.2018 04:00:00 13,9 8,7 13 7 NE 1019,6 -
19.04.2018 03:00:00 13,8 9,1 4 2 NNE 1020,4 -
19.04.2018 02:00:00 14,6 10,4 9 5 NNE 1020,6 30
19.04.2018 01:00:00 16,2 12,4 4 2 NNE 1020,6 -
19.04.2018 00:00:00 17,1 12,8 4 2 ESE 1020,6 -
18.04.2018 23:00:00 19,3 11,1 9 5 SW 1020,2 30
18.04.2018 22:00:00 21,1 12,5 8 4 S 1019,1 -
18.04.2018 21:00:00 23,8 11,6 16 9 SW 1018,4 -
18.04.2018 20:00:00 26,6 12,0 11 6 SW 1018,1 30
18.04.2018 19:00:00 28,0 9,9 8 4 E 1018,3 -
18.04.2018 18:00:00 28,2 9,1 4 2 SE 1018,7 -
18.04.2018 17:00:00 27,5 9,9 5 3 ENE 1019,1 30
18.04.2018 16:00:00 27,0 9,9 8 4 ENE 1019,7 -
18.04.2018 15:00:00 26,3 8,5 8 4 E 1020,3 -
18.04.2018 14:00:00 25,2 8,9 16 9 E 1020,5 30
18.04.2018 13:00:00 24,1 10,5 22 12 E 1021,1 -
18.04.2018 12:00:00 22,5 10,2 22 12 E 1021,1 -
18.04.2018 11:00:00 19,5 11,7 15 8 ENE 1021,3 30
18.04.2018 10:00:00 16,6 11,1 9 5 NE 1021,4 -

tt = Température de l'air
td = dewpoint
ff = Vitesse du vent
dd = Direction du vent
ppp = reduced air pressure
vv = visibility

stations d'obs. à proximité